Location: Observatorio Las Palmas
(29.0667°N, 110.9333°W)
Time: 10:59:27
(UTC-07:00)

Daily predictions for brighter satellites

Satellite Brightness Start Highest point End
(mag) Time Altitude Azimuth Time Altitude Azimuth Time Altitude Azimuth
Okean 2 3.9 19:05:10 10° NNE 19:09:03 38° E 19:12:53 10° SSE
Helios 1B rocket 2.4 19:07:02 10° NNE 19:11:09 88° ESE 19:15:15 10° SSW
SL-24 R/B - RUBIN 2 4.3 19:06:51 10° SSW 19:12:21 79° ESE 19:18:38 10° NNE
Cosmos 2297 Rocket 3.4 19:08:20 10° N 19:12:52 24° ENE 19:17:22 10° ESE
Meteor 1-5 Rocket 4.1 19:08:51 10° S 19:14:09 78° E 19:19:36 10° N
Cosmos 2082 4.4 19:09:47 10° N 19:14:49 33° ENE 19:19:52 10° SE
Delta 2 Rocket 4.2 19:09:16 10° WNW 19:15:06 71° NNE 19:20:33 10° ESE
Spot 2 Rocket 3.6 19:11:35 10° SSE 19:16:35 59° ENE 19:21:34 10° N
Cosmos 1544 Rocket 3.7 19:12:24 10° S 19:16:46 84° W 19:21:11 10° N
ATLAS 2A CENTAUR R/B 2.5 19:12:37 10° W 19:19:59 40° SSW 19:22:27 10° SE
Cosmos 1346 Rocket 3.1 19:18:22 10° N 19:22:11 44° E 19:26:02 10° SSE
Cosmos 1934 Rocket 4.0 19:19:47 10° S 19:25:53 90° E 19:32:08 10° N
Resurs 01 Rocket 1.6 19:23:43 10° SSE 19:28:08 78° ENE 19:32:33 10° N
Lacrosse 5 3.9 19:27:38 10° N 19:29:58 13° NE 19:32:17 10° ENE
Centaur D-1A AC-32 2.4 19:27:09 10° W 19:32:29 54° S 19:34:55 15° ESE
METEOR-M 4.2 19:31:48 10° SSE 19:37:09 87° W 19:42:31 10° NNW
Helios 1A 3.1 19:33:27 10° S 19:37:36 80° WSW 19:41:48 10° NNW
Cosmos 1697 Rocket 2.6 19:35:10 10° S 19:40:45 67° ESE 19:46:22 10° NNE
Cosmos 1461 2.7 19:45:07 10° NNW 19:49:07 90° ENE 19:52:15 15° SSE
ERS-1 Rocket 4.4 19:48:34 17° E 19:49:38 18° ENE 19:52:58 10° NNE
GPS 2-15 Rocket1 4.4 19:47:51 10° WSW 19:51:43 26° S 19:53:50 19° SE
OTV 4 0.5 19:50:39 10° WNW 19:53:35 63° NNE 19:54:31 37° E
RESURS DK-1 4.1 19:52:05 10° NNE 19:54:42 16° ENE 19:54:48 16° ENE
USA 186 2.1 19:54:36 34° ESE 19:55:07 37° ENE 19:57:53 10° N
Cosmos 1763 Rocket 3.8 19:56:17 10° SSE 20:01:00 39° E 20:05:43 10° NNE
ALOS 2.2 19:57:06 10° SSE 20:01:45 82° ENE 20:06:27 10° N
H-2A R/B 2.7 19:59:20 20° SSE 20:01:52 65° ENE 20:05:45 10° N
OAO 2 Rocket 4.2 19:59:17 10° WNW 20:04:00 42° N 20:07:11 19° ENE
Cosmos 1980 Rocket 2.1 19:59:13 10° S 20:04:46 63° ESE 20:10:23 10° NNE
Cosmos 2173 Rocket 4.1 20:06:26 10° SSE 20:12:35 54° E 20:18:44 10° NNE
CZ-4B DEB 4.5 20:13:06 32° S 20:14:39 87° WSW 20:18:18 10° NNW
Cosmos 1898 Rocket 3.6 20:10:34 10° N 20:15:44 54° ENE 20:17:25 38° SE
FENGYUN 3A 3.8 20:12:28 10° S 20:17:47 74° WSW 20:23:08 10° NNW
Cosmos 2084 3.6 20:14:34 10° NNW 20:18:37 50° ENE 20:19:05 47° E
Cosmos 1975 4.3 20:15:37 10° SSW 20:19:26 38° W 20:23:17 10° NNW
Tiangong 1 3.8 20:21:05 10° N 20:22:11 11° NNE 20:22:11 11° NNE
Cosmos 1626 Rocket 3.8 20:17:52 10° NNW 20:22:13 67° W 20:25:17 18° S
DELTA 2 R/B (1) 3.9 20:17:18 10° NW 20:22:45 55° NNE 20:24:35 38° ENE
Cosmos 841 Rocket 3.4 20:20:11 10° S 20:25:21 62° ESE 20:30:30 10° NNE
YAOGAN 11 4.4 20:25:39 47° ENE 20:25:39 47° ENE 20:29:55 10° N
CZ-2D R/B 4.1 20:23:40 19° SSW 20:26:14 48° W 20:30:00 10° NNW
Cosmos 1500 4.1 20:23:46 10° SSW 20:27:23 47° W 20:31:02 10° N
Fermi 4.1 20:24:54 10° W 20:28:42 50° SSW 20:28:42 50° SSW
Cosmos 220 Rocket 4.4 20:25:23 10° NNW 20:29:30 56° WSW 20:31:11 32° SSW
Cosmos 2100 Rocket 3.9 20:23:20 10° S 20:29:38 85° E 20:35:54 10° N
Lacrosse 5 rocket 1.5 20:26:20 10° NW 20:29:52 51° SW 20:30:06 50° SW
Cosmos 1602 Rocket 4.4 20:28:11 10° NNW 20:32:28 49° W 20:35:37 17° SSW
Hubble Space Telescope 3.2 20:34:51 10° SW 20:36:45 13° SSW 20:36:50 13° SSW
Cosmos 2322 Rocket 3.8 20:42:29 20° NE 20:42:29 20° NE 20:44:16 10° NE
Cosmos 2227 Rocket 3.8 20:37:01 10° NW 20:41:58 32° WSW 20:46:53 10° SSW
Cosmos 2061 Rocket 4.0 20:36:54 10° S 20:43:14 82° W 20:49:30 10° N
Cosmos 1459 Rocket 4.4 20:49:47 10° SSW 20:55:43 59° W 21:01:44 10° N
Cosmos 2297 Rocket 3.6 20:51:49 10° NW 20:56:52 34° WSW 21:00:00 20° SSW
Cosmos 1939 Rocket 4.3 21:00:06 34° N 21:00:06 34° N 21:02:31 10° N
Cosmos 1606 Rocket 4.3 20:59:41 51° NW 20:59:41 51° NW 21:03:14 10° N
Cosmos 1725 Rocket 4.1 21:02:48 56° NE 21:02:48 56° NE 21:07:56 10° NNE
Meteor 1-21 4.2 20:59:11 10° N 21:04:34 76° NNE 21:04:34 76° NNE
Envisat 3.3 21:06:51 59° NNW 21:06:51 59° NNW 21:10:57 10° NNW
Lacrosse 5 2.6 21:08:26 10° NW 21:12:11 51° NW 21:12:11 51° NW
SPOT 5 4.4 21:17:28 29° N 21:17:28 29° N 21:19:50 10° N
Cosmos 1937 Rocket 4.1 21:10:26 10° NNW 21:15:21 52° W 21:15:21 52° W
ERS-1 Rocket 4.2 21:28:35 37° W 21:28:35 37° W 21:32:42 10° NNW
SL-16 R/B 3.7 21:39:37 29° N 21:39:37 29° N 21:42:26 10° N
Milstar 3 Cent rocket 3.9 21:39:55 10° W 21:58:56 69° SSW 21:59:05 69° SSW
